User: anonymous   Login
Location: Unspecified
(0.0000°N, 0.0000°E)
Time: 23:12:24
(UTC+00:00)
Language:

COSMOS 2484 - Orbit

View from above orbital plane
View from above orbital plane
View from above satellite
View from above satellite

Ground track
Ground track

The orbit data is extracted from the following two-line orbital elements,

1 39059U 13001C   24151.59014144  .00000036  00000-0  18936-3 0  9991
2 39059  82.5011 326.7363 0025968 223.1644 136.7400 12.42898468515685
Epoch (UTC): 30 May 2024 14:09:48
Eccentricity: 0.0025968
inclination: 82.5011°
perigee height: 1474 km
apogee height: 1515 km
right ascension of ascending node: 326.7363°
argument of perigee: 223.1644°
revolutions per day: 12.42898468
mean anomaly at epoch: 136.7400°
orbit number at epoch: 51568

The dashed part of the orbit path shows where the satellite is in the earth's shadow,  

DLR